www.pogodaiklimat.ru

Погода и климат >> Архив погоды >> Россия >> Якутия >> Джалинда


ПОГОДА в Джалинде

  • Прогноз погоды в Джалинде
  • Монитор погоды в Джалинде
  • Климат города

АРХИВ ПОГОДЫ в Джалинде

Время (UTC), дата Ветер
(напр.,м/с)
 
Видим.   Явления Облачность Т
(С)
Тd
(С)
f
(%)
Тe
(С)
Тes
(С)
Комфортность P
(гПа)
Po
(гПа)
Тmin
(С)
Tmax
(С)
R
(мм)
R24
(мм)
S
(см)
03 16.10 штиль 0 50 км 10/0
[As op]
-13.0 -13.6 95 -13 -13 1034.6 1026.2
06 16.10 штиль 0 50 км 10/0
[As op]
-9.9 -10.7 94 -10 -10 1033.5 1025.2
09 16.10 ЮВ 1 50 км 10/10 600 м
[Sc]
-10.3 -10.3 100 -13 -13 1034.3 1026.0
12 16.10 ЮВ 1 50 км 6/6 600 м
[Sc]
-13.0 -13.0 100 -15 -15 1033.9 1025.5 -9.9
15 16.10 штиль 0 50 км ясно -18.4 -19.0 95 -18 -18 1032.9 1024.4
18 16.10 штиль 0 50 км ясно -21.1 -22.3 90 -21 -21 1031.9 1024.0
21 16.10 штиль 0 50 км 8/8 600 м
[Sc]
-17.4 -18.0 95 -17 -17 1030.0 1021.5
00 17.10 штиль 0 50 км 8/8 600 м
[Sc]
-17.1 -17.7 95 -17 -17 1028.1 1019.6 -21.1 14
03 17.10 штиль 0 50 км 9/9 600 м
[Sc]
-16.2 -16.8 95 -16 -16 1026.7 1018.3
06 17.10 штиль 0 50 км 9/9 600 м
[Sc]
-12.6 -13.2 95 -13 -13 1025.4 1017.0
09 17.10 штиль 0 50 км 9/9 600 м
[Sc]
-10.8 -11.4 95 -11 -11 1025.6 1017.4
12 17.10 штиль 0 50 км 9/9 600 м
[Sc]
-10.8 -11.4 95 -11 -11 1024.8 1015.4 -10.8
15 17.10 штиль 0 50 км 10/10 600 м
[Sc]
-10.5 -11.1 95 -11 -11 1023.7 1015.5
18 17.10 штиль 0 20 км слабый снег 10/10 600 м
[Sc]
-10.5 -11.1 95 -11 -11 1022.4 1014.3
21 17.10 штиль 0 20 км слабый снег 10/0 600 м
[As op]
-9.9 -9.8 100 -10 -10 1023.7 1015.5
00 18.10 штиль 0 50 км {снег} 9/9 600 м
[Sc]
-12.4 -12.4 100 -12 -12 1023.9 1015.5 -12.4 0.3 12
03 18.10 штиль 0 50 км 9/9 600 м
[Sc]
-13.4 -14.0 95 -13 -13 1024.3 1015.9
06 18.10 штиль 0 50 км 9/9 600 м
[Sc]
-12.4 -13.0 95 -12 -12 1024.7 1016.3
09 18.10 штиль 0 50 км 10/0 600 м
[As op]
-12.2 -12.8 95 -12 -12 1022.9 1014.8
12 18.10 штиль 0 50 км 10/0
[As op]
-14.3 -14.3 100 -14 -14 1024.3 1015.9 -12.2
15 18.10 штиль 0 50 км 10/0
[As op]
-15.3 -15.9 95 -15 -15 1024.2 1015.8
18 18.10 штиль 0 50 км 10/0
[As op]
-17.1 -17.7 95 -17 -17 1024.0 1015.5
21 18.10 штиль 0 50 км 10/0
[As op]
-19.4 -19.4 100 -19 -19 1023.6 1015.1
00 19.10 штиль 0 20 км слабый снег 10/0
[As op]
-17.0 -17.0 100 -17 -17 1026.0 1017.5 -19.4 0.4 12
03 19.10 штиль 0 50 км {снег} 10/0
[Cs]
-15.4 -16.0 95 -15 -15 1027.2 1018.8
06 19.10 штиль 0 50 км {снег} 8/0
[Ci sp]
-14.1 -14.7 95 -14 -14 1026.6 1018.2
09 19.10 штиль 0 50 км 8/8 1000 м
[Sc]
-16.8 -17.4 95 -17 -17 1027.2 1018.7
12 19.10 штиль 0 50 км ясно -21.2 -21.7 96 -21 -21 1027.6 1019.1 -14.1
15 19.10 штиль 0 50 км ясно -25.2 -25.8 95 -25 -25 1027.8 1019.1
18 19.10 штиль 0 50 км ясно -29.0 -30.1 90 -29 -29 1028.0 1019.1
21 19.10 штиль 0 50 км 6/6 600 м
[Sc]
-26.3 -27.4 90 -26 -26 1025.0 1016.3
00 20.10 штиль 0 50 км 9/8 600 м
[Sc Ci sp]
-21.6 -22.8 90 -22 -22 1025.0 1016.3 -21.9 12
03 20.10 штиль 0 50 км 8/4 600 м
[Sc Ci sp]
-18.4 -19.0 95 -18 -18 1027.1 1014.7
06 20.10 штиль 0 50 км 9/0
[Ci sp]
-15.0 -15.6 95 -15 -15 1021.0 1012.7
09 20.10 штиль 0 50 км 6/0
[Ci sp]
-14.9 -15.5 95 -15 -15 1022.4 1014.1
12 20.10 штиль 0 50 км 3/0
[Ci sp]
-16.6 -17.2 95 -17 -17 1022.1 1014.1 -14.8
15 20.10 штиль 0 50 км ясно -18.7 -19.3 95 -19 -19 1021.5 1013.1
18 20.10 штиль 0 50 км ясно -21.0 -21.6 95 -21 -21 1021.1 1012.7
21 20.10 штиль 0 50 км ясно -23.4 -24.0 95 -23 -23 1021.1 1012.5
00 21.10 штиль 0 50 км 6/6 600 м
[Sc]
-23.7 -25.0 89 -24 -24 1020.3 1011.7 -23.7 11
03 21.10 штиль 0 20 км слабый снег 10/0
[As op]
-17.4 -18.0 95 -17 -17 1019.4 1011.0
06 21.10 ЮВ 3 20 км слабый снег 10/8 600 м
[Sc Cs]
-12.6 -13.2 95 -19 -19 1018.1 1009.8
09 21.10 штиль 0 50 км {снег} 9/0
[Ci sp]
-14.4 -15.0 95 -14 -14 1015.7 1007.4
12 21.10 штиль 0 50 км {снег} 3/0
[Ci fib]
-17.7 -18.3 95 -18 -18 1015.5 1007.1 -12.4 0.0
15 21.10 штиль 0 50 км слабый снег ?/? -18.0 -18.0 100 -18 -18 1015.1 1006.7
18 21.10 штиль 0 50 км 6/0
[Ci fib]
-17.0 -17.6 95 -17 -17 1014.5 1006.1
21 21.10 штиль 0 50 км 3/0
[Ci fib]
-18.8 -19.8 92 -19 -19 1014.1 1005.7
00 22.10 ЮВ 1 20 км слабый снег 10/0
[As op]
-13.7 -14.3 95 -16 -16 1012.3 1004.1 -18.8 0.2 11
03 22.10 ЮВ 3 50 км {снег} 8/0
[Ci fib]
-13.4 -14.7 90 -20 -20 1012.1 1003.9
06 22.10 штиль 0 50 км {снег} 6/0
[Ci fib]
-14.8 -16.8 85 -15 -15 1010.5 1002.3
09 22.10 ЮВ 3 20 км слабый снег 10/8 600 м
[Sc Cs]
-14.6 -15.9 90 -21 -21 1010.0 1001.8
12 22.10 ЮВ 1 20 км слабый снег 10/0
[As op]
-15.1 -15.7 95 -18 -18 1010.0 1001.8 -13.4 0.6
15 22.10 ЮВ 1 20 км слабый снег 10/0
[As op]
-15.6 -16.2 95 -18 -18 1009.7 1001.5
18 22.10 ЮВ 1 20 км слабый снег 10/0
[As op]
-15.8 -16.4 95 -18 -18 1009.5 1001.3
21 22.10 штиль 0 50 км {снег} ясно -24.8 -26.0 90 -25 -25 1007.1 998.6

 

Местоположение метеостанции Джалинда (Якутия, Россия): широта 70.13 долгота 113.90 высота над уровнем моря 62 м.

В архиве по умолчанию представлена погода в Джалинде за последнюю неделю. Архивные данные за месяц целиком и за предыдущие месяцы, начиная с января 2011 года, Вы можете получить, выбрав интересующий диапазон дат из раскрывающегося списка и нажав кнопку "Ввод!".

Внимание! Время в таблицах - всемирное. Для получения местного времени необходимо прибавить поправку, которая в Джалинде равна 9 ч.

Смотрите также архив погоды в соседних городах и на ближайших метеорологических станциях:

Погода в Оленеке (Якутия, Россия) (191 км)
Погода в Саскылахе (Якутия, Россия) (205 км)
Погода в Сухане (Якутия, Россия) (241 км)
Погода в Анабаре (Якутия, Россия) (344 км)
Погода в Усть-Оленеке (Якутия, Россия) (380 км)
Погода в Полярном (Якутия, Россия) (383 км)
Погода в Ярольине (Якутия, Россия) (399 км)
Погода в Тюмяти (Якутия, Россия) (400 км)
Погода в Джарджане (Якутия, Россия) (424 км)
Погода в Шелагонцах (Якутия, Россия) (432 км)

Пояснения к столбцам:

Ветер - указаны скорость ветра в м/с - средняя за 10 мин, порывы в срок и между сроками (в фигурных скобках) и направление, откуда дует ветер: С - северный, СВ - северо-восточный, В - восточный, ЮВ - юго-восточный, Ю - южный, ЮЗ - юго-западный, З - западный, СЗ - северо-западный.
Видимость - горизонтальная дальность видимости в метрах или километрах. При видимости от 1 до 10 км при отсутствии осадков обычно наблюдается дымка, при ухудшении видимости до 1 км и менее - туман. В сухую погоду видимость может ухудшаться дымом, пылью или мглою.
Явления - указаны атмосферные явления, наблюдавшиеся в срок или в последний час перед сроком; фигурными скобками обозначены явления, наблюдавшиеся между сроками (за 1-3 часа до срока); квадратными скобками обозначены град или гололедные отложения с указанием их диаметра в мм.
Облачность - указаны через наклонную черту общая и нижняя облачность в баллах и высота нижней границы облаков в метрах; квадратными скобками обозначены формы облаков: Ci - перистые, Cs - перисто-слоистые, Cc - перисто-кучевые, Ac - высококучевые, As - высокослоистые, Sc - слоисто-кучевые, Ns - слоисто-дождевые, Cu - кучевые, Cb - кучево-дождевые. Подробнее классификацию облаков см. в Атласе облаков (PDF).
T - Температура воздуха - температура, измеренная на высоте 2 м над землей.
Td - Температура точки росы - температура, при понижении до которой содержащийся в воздухе водяной пар достигнет насыщения.
f - Относительная влажность воздуха - влажноcть воздуха, измеренная на высоте 2 м над землей.
Te - Эффективная температура - температура, которую ощущает одетый по сезону человек в тени. Характеристика душности погоды. При расчете учитывается влияние влажности воздуха и скорости ветра на теплоощущения человека.
Tes - Эффективная температура на солнце - температура, которую ощущает человек, с поправкой на солнечный нагрев. Характеристика знойности погоды. Зависит от высоты солнца над горизонтом, облачности и скорости ветра. Ночью, в пасмурную погоду, а также при ветре 12 м/с и более поправка равна нулю.
P - Атмосферное давление - приведенное к уровню моря атмосферное давление.
Po - Атмосферное давление - измеренное на уровне метеостанции атмосферное давление.
Tmin - Минимальная температура - минимум температуры воздуха на высоте 2 м над землей.
Tmax - Максимальная температура - максимум температуры воздуха на высоте 2 м над землей.
R - Количество осадков - Количество выпавших осадков за период времени, мм. При наведении курсора мыши на число - период времени, за который выпало указанное количество осадков.
R24 - Количество осадков - Количество выпавших осадков за 24 часа, мм.
S - Снежный покров - Высота снежного покрова, см. При наведении курсора мыши на число - состояние снежного покрова и степень покрытия местности в баллах.